This is the latest recevied weather packets stored in our database for station/object K6POO-1. If no packets are shown the sender has not sent any weather packets the latest 10 day(s).
| Time | Temp. | Humidity | Pressure | Rain* | Wind** | Luminosity | Snow |
|---|---|---|---|---|---|---|---|
| 1778040909 | 13.89° C | 81% | 1017.6 hPa | 0 mm | - | 0 W/m² | - |
| 1778040605 | 13.33° C | 81% | 1017.8 hPa | 0 mm | - | 0 W/m² | - |
| 1778040303 | 13.33° C | 82% | 1017.6 hPa | 0 mm | - | 0 W/m² | - |
| 1778039998 | 13.89° C | 82% | 1017.5 hPa | 0 mm | - | 0 W/m² | - |
| 1778039696 | 13.89° C | 82% | 1017.4 hPa | 0 mm | - | 0 W/m² | - |
| 1778039392 | 13.89° C | 82% | 1017.4 hPa | 0 mm | - | 0 W/m² | - |
| 1778039090 | 13.89° C | 82% | 1017.1 hPa | 0 mm | - | 0 W/m² | - |
| 1778038787 | 13.89° C | 81% | 1017 hPa | 0 mm | - | 0 W/m² | - |
| 1778038484 | 13.89° C | 81% | 1017 hPa | 0 mm | - | 0 W/m² | - |
| 1778038180 | 13.89° C | 81% | 1017 hPa | 0 mm | - | 0 W/m² | - |
| 1778037878 | 13.89° C | 81% | 1016.9 hPa | 0 mm | - | 0 W/m² | - |
| 1778037574 | 13.89° C | 80% | 1016.8 hPa | 0 mm | - | 0 W/m² | - |
| 1778037272 | 13.89° C | 81% | 1016.8 hPa | 0 mm | - | 1 W/m² | - |
| 1778036969 | 13.89° C | 81% | 1016.8 hPa | 0 mm | - | 2 W/m² | - |
| 1778036667 | 13.89° C | 80% | 1017 hPa | 0 mm | - | 3 W/m² | - |
| 1778036364 | 13.89° C | 80% | 1016.7 hPa | 0 mm | - | 6 W/m² | - |
| 1778036061 | 13.89° C | 81% | 1016.5 hPa | 0 mm | - | 8 W/m² | - |
| 1778035757 | 13.89° C | 81% | 1016.7 hPa | 0 mm | - | 12 W/m² | - |
| 1778035455 | 13.89° C | 82% | 1016.9 hPa | 0 mm | - | 15 W/m² | - |
| 1778035150 | 13.89° C | 81% | 1016.5 hPa | 0 mm | - | 19 W/m² | - |
| 1778034847 | 13.89° C | 80% | 1016.6 hPa | 0 mm | - | 23 W/m² | - |
| 1778034544 | 13.89° C | 80% | 1016.5 hPa | 0 mm | - | 26 W/m² | - |
| 1778034242 | 13.89° C | 80% | 1016.5 hPa | 0 mm | - | 29 W/m² | - |
| 1778033939 | 13.89° C | 81% | 1016.6 hPa | 0 mm | - | 37 W/m² | - |
| 1778033636 | 13.89° C | 81% | 1016.5 hPa | 0 mm | - | 37 W/m² | - |
* Rain latest hour (hover to see other rain measurements)
** Current wind speed in m/s (hover to see current wind gust speed)